Location: Observatoire de Paris
(48.8363°N, 2.3365°E)
Time: 02:54:30
(UTC+01:00)

Vanguard 3 - Pass Details

Date: 05 August 2021
Orbit: 510 x 3260 km, 33.3° (Epoch: 18 September)

Event Time Altitude Azimuth Distance (km) Brightness Sun altitude
Rises 22:50:55 0° 273° (W) 6,553 12.3 -18.7°
Reaches altitude 10° 22:55:44 10° 264° (W) 5,815 11.8 -19.2°
Maximum altitude 23:10:36 31° 212° (SSW) 4,668 10.7 -20.3°
Enters shadow 23:19:26 22° 176° (S) 5,103 10.6 -21.0°
